Showing default

COSMOS 2285, 23189

Orbit data source: Space-Track

COSMOS 2285, 23189 is a payload satellite owned by TsSKB (CIS) in LEO that was launched on Tue, 02 Aug 1994 UTC via a KOSMOS 11K65M launch vehicle from the Plesetsk Missile And Space Complex (PKMTR). Payload-class satellites include a variety of spacecraft equipped with specific instruments for various scientific and technological missions. These include communications satellites like Starlink; space stations such as the ISS; scientific satellites like the Hubble; Earth observation satellites from companies like Planet Labs, Umbra, and HawkEye 360; GPS; miniature CubeSats for education and research; and military/defense satellites.

Loading next visibility...
Identifier
23189, 1994-045A
Orbit
LEO
Country
Flag of CISCIS
Related business
Manufacturer
TsSKB
Mission
Defense Imaging
Bus & Motor
OBZOR, Unknown motor
Mass
~900 kg wet, ~900 kg dry
Launch date (UTC)
1994-08-02 (31 years ago)
Launch vehicle
KOSMOS 11K65M
Launch site
Plesetsk Missile And Space Complex (PKMTR)
Object type
Payload
Rocket body
Debris
Shape & HBR
Cyl, 2.5 m
Radar Cross Section
9.978 m², Large (>1 m²)

Expand to show TLE details & history
Last TLE update: 1 day ago

TLE from 1 day ago
0 COSMOS 2285
1 23189U 94045A   25301.54504863  .00000036  00000-0  63142-4 0  9990
2 23189  74.0267 136.2780 0025304 186.7682 202.7110 13.72500990564611
Epoch: 2025-10-28T13:04Z
TLE epoch observation values (Epoch: 2025-10-28T13:04:52.201Z)
Latitude
28.17848°
Longitude
-88.29581°
Altitude
1,010.914 km
Speed
7.34 km/s
True Right ascension
09h 40m 12s
True Declination
28° 02' 26"
Sunlit
Object was in daylight at epoch
Visualization orbit readout
Latitude
Unknown
Longitude
Unknown
Altitude
Unknown
Speed
Unknown
Apparent Right ascension
Unknown
Apparent Declination
Unknown
Sunlit
N/A
Visualization observer readout
Local Sidereal Time
10:05:41
Azimuth
Unknown
Elevation
Unknown
Doppler factor
Unknown
Orbital elements
Apogee altitude
1,006.941 km
Perigee altitude
969.661 km
Semi-major axis
7,366.438 km
Eccentricity
0.00253
Inclination
74.0267°
RAAN
136.278°
Arg. of periapsis
186.7682°
True anomaly
202.59938°
Mean anomaly
202.711°
Eccentric anomaly
202.65516°
Mean motion
3.43287 °/min
Orbital period
104.87 mins
BSTAR
0.000063142
Loading maneuver chart data...
Computing Atmospheric mass density...
Loading historical data...
Loading historical data...
Loading historical data...
Loading historical data...
Loading historical data...
Loading historical data...
Loading historical data...
Other satellites on launch #45 in the year 1994 (1994-08-02 UTC)

Documentation

Showing up to 5 results
|